Location: Boitzum
(52.1496°N, 9.6943°E)
Time: 14:38:01
(UTC+00:00)

Cosmos 1758 - Visible Passes

Search period start: 19 April 2026 00:00
Search period end: 29 April 2026 00:00
Orbit: 478 x 497 km, 82.5° (Epoch: 19 April)

Date Brightness Start Highest point End Pass type
(mag) Time Alt. Az. Time Alt. Az. Time Alt. Az.
19 Apr 3.2 03:36:39 10° N 03:40:20 82° E 03:43:57 10° SSE visible
20 Apr 4.0 03:12:44 10° N 03:16:21 53° ENE 03:19:54 10° SSE visible
21 Apr 4.8 02:48:55 10° N 02:52:19 36° ENE 02:55:42 10° SE visible
22 Apr 5.5 02:25:10 10° NNE 02:28:15 25° ENE 02:31:19 10° SE visible
23 Apr 6.0 02:01:32 10° NNE 02:04:08 18° ENE 02:06:42 10° ESE visible
24 Apr 6.2 01:38:10 10° NNE 01:39:57 13° ENE 01:41:44 10° E visible
24 Apr 3.0 03:11:56 10° NNW 03:15:34 67° W 03:19:09 10° S visible
25 Apr 3.2 02:47:53 10° N 02:51:34 80° E 02:55:11 10° SSE visible
26 Apr 3.9 02:23:56 10° N 02:27:31 52° ENE 02:31:04 10° SSE visible
27 Apr 4.7 02:00:03 10° N 02:03:26 35° ENE 02:06:46 10° SE visible
28 Apr 5.3 01:36:15 10° NNE 01:39:17 24° ENE 01:42:18 10° SE visible
28 Apr 3.9 03:11:13 10° NNW 03:14:27 30° W 03:17:38 10° SSW visible
